Regional Weather Roundup
Issued by NWS

Home | Current Version | Previous Version | Text Only | Print | Product List | Glossary Off
Versions: 1 2 3 4 5 6 7 8 9 10 11 12 13 14 15 16 17 18 19 20 21 22 23 24 25 26 27 28 29 30 31 32 33 34 35 36 37 38 39 40 41 42 43 44 45 46 47 48 49 50

000
ASUS44 KMEG 121710
RWRTN
TENNESSEE HOURLY STATE WEATHER ROUNDUP
NATIONAL WEATHER SERVICE MEMPHIS TN
1100 AM CST FRI FEB 12 2016

TNZ002-004-019-021-049-052-054-088>092-121800-
WEST TENNESSEE

CITY           SKY/WX    TMP DP  RH WIND       PRES   REMARKS
MEMPHIS INTL   MOSUNNY   50  28  42 NW9       30.26R
NWS MEMPHIS      N/A     49 N/A N/A MISG        N/A
JACKSON        SUNNY     47  26  44 NW17      30.24R
DYERSBURG      PTSUNNY   41  25  52 NW9       30.28
UNION CITY     PTSUNNY   37  25  60 NW7       30.25R WCI  32
PARIS          CLOUDY    36  21  55 NW7       30.23R WCI  30
LEXINGTON      PTSUNNY   46  23  39 NW13      30.20R
$$

TNZ008-025-027-028-033-062-065-066-121800-
NORTH MIDDLE TENNESSEE

CITY           SKY/WX    TMP DP  RH WIND       PRES   REMARKS
NASHVILLE      CLOUDY    39  23  52 VRB5      30.21R
CLARKSVILLE    CLOUDY    35  28  75 VRB6      30.23R WCI  30
SMYRNA         PTSUNNY   38  25  60 N9        30.21S WCI  31
COOKEVILLE     PTSUNNY   32  30  93 CALM      30.15S
CROSSVILLE     CLOUDY    35  30  82 NW8       30.12R WCI  29
$$

TNZ061-075-076-078-094-096-097-121800-
SOUTH MIDDLE TENNESSEE

CITY           SKY/WX    TMP DP  RH WIND       PRES   REMARKS
FAYETTEVILLE   SUNNY     48  28  46 VRB7      30.15S
TULLAHOMA      MOSUNNY   46  27  46 W6        30.15S
WINCHESTER     SUNNY     45  28  53 NW6       30.15S
MCMINNVILLE    PTSUNNY   37  30  75 N6        30.16R WCI  33
COLUMBIA       CLOUDY    43  28  56 NW3       30.16S
SHELBYVILLE    CLOUDY    45  30  57 NW8       30.18R
$$

TNZ017-018-042-046-047-121800-
NORTHEAST TENNESSEE

CITY           SKY/WX    TMP DP  RH WIND       PRES   REMARKS
TRI CITIES     SNOW      29  27  92 CALM      30.09F VSB 1/2
$$

TNZ012-013-036-069-073-074-121800-
CENTRAL EAST TENNESSEE

CITY           SKY/WX    TMP DP  RH WIND       PRES   REMARKS
KNOXVILLE      FLURRIES  32  29  88 CALM      30.13F
OAK RIDGE      CLOUDY    33  30  88 S3        30.15F
GATLINBURG     CLOUDY    30  27  86 CALM      30.13S
MORRISTOWN     CLOUDY    30  28  93 W5        30.10F FOG     WCI  25
$$

TNZ083-085-099-121800-
SOUTHEAST TENNESSEE

CITY           SKY/WX    TMP DP  RH WIND       PRES   REMARKS
CHATTANOOGA    MOSUNNY   44  25  47 VRB3      30.14F
$$

SKY/WX REPORTED AS FAIR MEANS FEW OR NO CLOUDS BELOW
12 THOUSAND FEET.




USA.gov is the U.S. government's official web portal to all federal, state and local government web resources and services.